Mora, MN

12:10 PM CST on February 22, 2017 (GMT -0600)
Mora Municipal

Weather History for KJMR - July, 2014

Change the Weather History Date:

Friday, July 18, 2014

  Actual Average Record
Temperature  
Mean Temperature 65 °F -  
Max Temperature 75 °F 84 °F 97 °F (1932)
Min Temperature 55 °F 57 °F 39 °F (1988)
Growing Degree Days 15 (Base 50)    
Moisture  
Dew Point 54 °F    
Average Humidity 67    
Maximum Humidity 94    
Minimum Humidity 44    
Precipitation  
Precipitation 0.00 in - - ()
Sea Level Pressure  
Sea Level Pressure 30.00 in    
Wind  
Wind Speed 5 mph (South)    
Max Wind Speed 16 mph    
Max Gust Speed 23 mph    
Visibility 10 miles    
Events      
Averages and records for this station are not official NWS values.
T = Trace of Precipitation, MM = Missing Value Source: NWS Daily Summary

Daily Weather History Graph

Daily Weather History Graph

Search for Another Location

Airport or City:

Trip Planner

Search our weather history database for the weather conditions in past years. The results will help you decide how hot, cold, wet, or windy it might be!

Date:

Astronomy

Jul. 18, 2014 Rise Set
Actual Time 5:40 AM CDT 8:57 PM CDT
Civil Twilight 5:03 AM CDT 9:33 PM CDT
Nautical Twilight 4:16 AM CDT 10:21 PM CDT
Astronomical Twilight 3:16 AM CDT 11:20 PM CDT
Moon No Moon Rise 1:23 PM CDT (7/18)
Length of Visible Light 16h 29m
Length of Day
15h 17m
Waning Gibbous, 54% of the Moon is Illuminated
Jul 18
Waning Gibbous
Jul 18
Last Quarter
Jul 26
New
Aug 3
First Quarter
Aug 10
Full

Hourly Weather History & Observations

Time (CDT) Temp. Dew Point Humidity Pressure Visibility Wind Dir Wind Speed Gust Speed Precip Events Conditions
12:13 AM 57.2 °F 53.6 °F 88% 30.02 in 10.0 mi Calm Calm - N/A   Clear
12:33 AM 55.4 °F 53.6 °F 94% 30.03 in 10.0 mi Calm Calm - N/A   Clear
12:53 AM 55.4 °F 53.6 °F 94% 30.02 in 10.0 mi Calm Calm - N/A   Clear
1:13 AM 55.4 °F 53.6 °F 94% 30.03 in 10.0 mi Calm Calm - N/A   Clear
1:33 AM 55.4 °F 51.8 °F 88% 30.03 in 10.0 mi Calm Calm - N/A   Clear
1:53 AM 55.4 °F 51.8 °F 88% 30.02 in 10.0 mi Calm Calm - N/A   Clear
2:13 AM 57.2 °F 51.8 °F 82% 30.02 in 10.0 mi Calm Calm - N/A   Clear
2:33 AM 55.4 °F 51.8 °F 88% 30.02 in 10.0 mi Calm Calm - N/A   Clear
2:53 AM 55.4 °F 51.8 °F 88% 30.03 in 10.0 mi Calm Calm - N/A   Clear
3:13 AM 59.0 °F 51.8 °F 77% 30.02 in 10.0 mi Calm Calm - N/A   Clear
3:33 AM 55.4 °F 50.0 °F 82% 30.02 in 10.0 mi Calm Calm - N/A   Clear
3:53 AM 55.4 °F 51.8 °F 88% 30.03 in 10.0 mi Calm Calm - N/A   Scattered Clouds
4:13 AM 55.4 °F 51.8 °F 88% 30.03 in 10.0 mi Calm Calm - N/A   Scattered Clouds
4:33 AM 55.4 °F 51.8 °F 88% 30.03 in 10.0 mi Calm Calm - N/A   Scattered Clouds
4:53 AM 55.4 °F 51.8 °F 88% 30.03 in 10.0 mi Calm Calm - N/A   Scattered Clouds
5:13 AM 55.4 °F 51.8 °F 88% 30.03 in 10.0 mi Calm Calm - N/A   Scattered Clouds
5:33 AM 55.4 °F 50.0 °F 82% 30.03 in 10.0 mi Calm Calm - N/A   Clear
5:53 AM 55.4 °F 51.8 °F 88% 30.04 in 10.0 mi Calm Calm - N/A   Clear
6:13 AM 55.4 °F 51.8 °F 88% 30.04 in 10.0 mi Calm Calm - N/A   Clear
6:33 AM 55.4 °F 51.8 °F 88% 30.04 in 10.0 mi Calm Calm - N/A   Clear
6:53 AM 55.4 °F 51.8 °F 88% 30.04 in 10.0 mi South 3.5 mph - N/A   Clear
7:13 AM 59.0 °F 53.6 °F 82% 30.04 in 10.0 mi South 4.6 mph - N/A   Clear
7:33 AM 59.0 °F 53.6 °F 82% 30.04 in 10.0 mi South 4.6 mph - N/A   Clear
7:53 AM 60.8 °F 53.6 °F 77% 30.05 in 10.0 mi South 5.8 mph - N/A   Clear
8:13 AM 62.6 °F 55.4 °F 77% 30.05 in 10.0 mi South 5.8 mph - N/A   Clear
8:33 AM 64.4 °F 57.2 °F 77% 30.05 in 10.0 mi South 5.8 mph - N/A   Clear
8:53 AM 64.4 °F 55.4 °F 73% 30.05 in 10.0 mi South 9.2 mph - N/A   Clear
9:13 AM 64.4 °F 55.4 °F 73% 30.05 in 10.0 mi SSW 5.8 mph - N/A   Clear
9:33 AM 68.0 °F 55.4 °F 64% 30.05 in 10.0 mi South 6.9 mph - N/A   Clear
9:53 AM 69.8 °F 57.2 °F 64% 30.05 in 10.0 mi SSW 9.2 mph - N/A   Clear
10:13 AM 69.8 °F 55.4 °F 60% 30.04 in 10.0 mi South 8.1 mph - N/A   Clear
10:53 AM 71.6 °F 55.4 °F 57% 30.03 in 10.0 mi South 12.7 mph - N/A   Clear
11:13 AM 71.6 °F 55.4 °F 57% 30.03 in 10.0 mi SSW 10.4 mph 17.3 mph N/A   Clear
11:33 AM 73.4 °F 55.4 °F 53% 30.03 in 10.0 mi SSW 11.5 mph - N/A   Clear
11:53 AM 73.4 °F 53.6 °F 50% 30.02 in 10.0 mi SSW 15.0 mph 19.6 mph N/A   Clear
12:13 PM 73.4 °F 53.6 °F 50% 30.02 in 10.0 mi SSW 13.8 mph 19.6 mph N/A   Clear
12:33 PM 73.4 °F 53.6 °F 50% 30.02 in 10.0 mi South 15.0 mph 18.4 mph N/A   Clear
12:53 PM 75.2 °F 53.6 °F 47% 30.01 in 10.0 mi SSW 16.1 mph 20.7 mph N/A   Clear
1:13 PM 73.4 °F 53.6 °F 50% 30.01 in 10.0 mi SSW 13.8 mph 18.4 mph N/A   Scattered Clouds
1:33 PM 73.4 °F 51.8 °F 47% 30.00 in 10.0 mi South 11.5 mph 18.4 mph N/A   Scattered Clouds
1:53 PM 75.2 °F 53.6 °F 47% 30.00 in 10.0 mi South 15.0 mph - N/A   Scattered Clouds
2:13 PM 75.2 °F 53.6 °F 47% 29.99 in 10.0 mi SW 13.8 mph 18.4 mph N/A   Scattered Clouds
2:33 PM 75.2 °F 51.8 °F 44% 29.99 in 10.0 mi SSW 13.8 mph - N/A   Scattered Clouds
2:53 PM 75.2 °F 51.8 °F 44% 29.99 in 10.0 mi SSW 13.8 mph 18.4 mph N/A   Clear
3:13 PM 75.2 °F 51.8 °F 44% 29.98 in 10.0 mi South 13.8 mph 19.6 mph N/A   Clear
3:33 PM 75.2 °F 51.8 °F 44% 29.98 in 10.0 mi South 12.7 mph 19.6 mph N/A   Clear
3:53 PM 75.2 °F 53.6 °F 47% 29.97 in 10.0 mi South 10.4 mph - N/A   Clear
4:13 PM 75.2 °F 53.6 °F 47% 29.97 in 10.0 mi SSW 13.8 mph - N/A   Clear
4:33 PM 75.2 °F 53.6 °F 47% 29.97 in 10.0 mi South 13.8 mph 18.4 mph N/A   Clear
4:53 PM 75.2 °F 53.6 °F 47% 29.96 in 10.0 mi South 13.8 mph 18.4 mph N/A   Scattered Clouds
5:13 PM 75.2 °F 55.4 °F 50% 29.96 in 10.0 mi South 13.8 mph 18.4 mph N/A   Scattered Clouds
5:33 PM 75.2 °F 57.2 °F 53% 29.95 in 10.0 mi South 12.7 mph - N/A   Clear
5:53 PM 75.2 °F 59.0 °F 57% 29.95 in 10.0 mi South 15.0 mph 23.0 mph N/A   Scattered Clouds
6:13 PM 73.4 °F 57.2 °F 57% 29.95 in 10.0 mi South 10.4 mph - N/A   Scattered Clouds
6:33 PM 73.4 °F 55.4 °F 53% 29.94 in 10.0 mi SSW 10.4 mph 18.4 mph N/A   Scattered Clouds
6:53 PM 73.4 °F 55.4 °F 53% 29.94 in 10.0 mi South 10.4 mph - N/A   Clear
7:13 PM 73.4 °F 55.4 °F 53% 29.94 in 10.0 mi South 11.5 mph - N/A   Clear
7:33 PM 73.4 °F 57.2 °F 57% 29.94 in 10.0 mi South 11.5 mph - N/A   Clear
7:53 PM 73.4 °F 57.2 °F 57% 29.94 in 10.0 mi South 9.2 mph - N/A   Clear
8:13 PM 69.8 °F 55.4 °F 60% 29.93 in 10.0 mi South 9.2 mph - N/A   Clear
8:33 PM 69.8 °F 57.2 °F 64% 29.93 in 10.0 mi South 6.9 mph - N/A   Clear
8:53 PM 69.8 °F 59.0 °F 68% 29.94 in 10.0 mi South 6.9 mph - N/A   Clear
9:13 PM 69.8 °F 59.0 °F 68% 29.94 in 10.0 mi South 5.8 mph - N/A   Clear
9:33 PM 68.0 °F 55.4 °F 64% 29.95 in 10.0 mi South 3.5 mph - N/A   Clear
9:53 PM 68.0 °F 55.4 °F 64% 29.96 in 10.0 mi South 3.5 mph - N/A   Clear
10:13 PM 68.0 °F 55.4 °F 64% 29.96 in 10.0 mi South 3.5 mph - N/A   Scattered Clouds
10:33 PM 68.0 °F 55.4 °F 64% 29.94 in 10.0 mi SSE 4.6 mph - N/A   Mostly Cloudy
10:53 PM 64.4 °F 55.4 °F 73% 29.94 in 10.0 mi SSE 4.6 mph - N/A   Scattered Clouds
11:13 PM 64.4 °F 55.4 °F 73% 29.94 in 10.0 mi SSE 4.6 mph - N/A   Clear
11:33 PM 64.4 °F 55.4 °F 73% 29.93 in 10.0 mi SSE 4.6 mph - N/A   Clear
11:53 PM 64.4 °F 55.4 °F 73% 29.93 in 10.0 mi SSE 4.6 mph - N/A   Scattered Clouds